Location: Dover
(48.8500°N, 53.9833°W)
Time: 05:59:15
(UTC+00:00)

Cosmos 1627 Rocket - Pass Details

Date: 14 November 2025
Orbit: 949 x 1003 km, 82.9° (Epoch: 10 December)

Event Time Altitude Azimuth Distance (km) Brightness Sun altitude
Rises 22:17:41 0° 353° (N) 3,635 7.6 -23.1°
Reaches altitude 10° 22:20:15 10° 358° (N) 2,686 6.8 -23.5°
Enters shadow 22:26:09 54° 71° (ENE) 1,144 4.5 -24.5°
